Weather History for Wattisham, United Kingdom

Change the Weather History Date:

Wednesday, October 16, 2013

  Actual Average (EGSC) Record (EGSC)
Temperature  
Mean Temperature 47 °F -  
Max Temperature 53 °F 57 °F 64 °F (2005)
Min Temperature 41 °F 45 °F 37 °F (2003)
Degree Days  
Heating Degree Days 18    
Moisture  
Dew Point 48 °F    
Average Humidity 95    
Maximum Humidity 100    
Minimum Humidity 87    
Precipitation  
Precipitation 0.08 in - - ()
Sea Level Pressure  
Sea Level Pressure 29.82 in    
Wind  
Wind Speed 6 mph ()    
Max Wind Speed 15 mph    
Max Gust Speed -    
Visibility 3.5 miles    
Events Fog , Rain    
Averages and records for this station are not official NWS values.
T = Trace of Precipitation, MM = Missing Value Source: Averaged Metar Reports

Daily Weather History Graph

Daily Weather History Graph

Search for Another Location

Airport:

Trip Planner

Search our weather history database for the weather conditions in past years. The results will help you decide how hot, cold, wet, or windy it might be!

Date:

Astronomy

Oct. 16, 2013 Rise Set
Actual Time 7:22 AM BST 5:59 PM BST
Civil Twilight 6:48 AM BST 6:33 PM BST
Nautical Twilight 6:09 AM BST 7:12 PM BST
Astronomical Twilight 5:30 AM BST 7:52 PM BST
Moon 4:44 PM BST (10/16) 4:16 AM BST (10/16)
Length of Visible Light 11h 45m
Length of Day
10h 36m
Waxing Gibbous, 93% of the Moon is Illuminated
Oct 16
Waxing Gibbous
Oct 19
Full
Oct 27
Last Quarter
Nov 3
New
Nov 10
First Quarter

Hourly Weather History & Observations

Time (BST) Temp. Windchill Dew Point Humidity Pressure Visibility Wind Dir Wind Speed Gust Speed Precip Events Conditions
12:50 AM 43 °F - 42 °F 96% 29.96 in 1 mi WNW 5.8 mph - - Fog Shallow Fog
12:50 AM 42.8 °F 39.3 °F 42.8 °F 100% 29.95 in 1.1 mi WNW 5.8 mph - N/A Fog Fog
1:50 AM 42.8 °F 40.1 °F 42.8 °F 100% 29.95 in - NW 4.6 mph - N/A Fog Fog
2:50 AM 44.6 °F 42.2 °F 42.8 °F 93% 29.95 in 1.4 mi NNW 4.6 mph - N/A Fog Fog
3:03 AM 42.8 °F - 42.8 °F 100% 29.95 in 0.6 mi WSW 2.3 mph - N/A Fog Fog
3:50 AM 43 °F - 43 °F 100% 29.96 in 1 mi WNW 2.3 mph - - Fog Light Fog
3:50 AM 42.8 °F - 42.8 °F 100% 29.95 in 1.1 mi WNW 2.3 mph - N/A Fog Shallow Fog
4:50 AM 44.6 °F - 42.8 °F 93% 29.92 in 0.4 mi North 2.3 mph - N/A Fog Fog
5:50 AM 42.8 °F - 41.0 °F 93% 29.92 in 0.4 mi West 2.3 mph - N/A Fog Fog
6:50 AM 44 °F - 44 °F 100% 29.92 in 0 mi NE 3.5 mph - - Fog Partial Fog
6:50 AM 44.6 °F 43.1 °F 44.6 °F 100% 29.89 in 0.3 mi NE 3.5 mph - N/A Fog Fog
7:50 AM 46.4 °F 44.3 °F 46.4 °F 100% 29.89 in 0.5 mi East 4.6 mph - N/A Fog Fog
8:50 AM 48.2 °F - 46.4 °F 93% 29.89 in 1.6 mi SE 4.6 mph - N/A Fog Patches of Fog
9:16 AM 46.4 °F 42.9 °F 46.4 °F 100% 29.89 in 0.2 mi SE 6.9 mph - N/A Fog Fog
9:50 AM 46 °F - 46 °F 99% 29.89 in 0 mi South 5.8 mph - - Fog Heavy Fog
9:50 AM 46.4 °F 43.5 °F 46.4 °F 100% 29.89 in 0.5 mi South 5.8 mph - N/A Fog Fog
10:50 AM 50.0 °F - 50.0 °F 100% 29.86 in 1.2 mi SSE 5.8 mph - N/A   Overcast
10:55 AM 50.0 °F - 50.0 °F 100% 29.86 in 1.2 mi South 5.8 mph - N/A   Overcast
11:21 AM 50.0 °F - 50.0 °F 100% 29.86 in 1.7 mi SSE 8.1 mph - N/A   Overcast
11:43 AM 50.0 °F - 50.0 °F 100% 29.83 in 3.1 mi SSE 9.2 mph - N/A Rain Light Rain
11:50 AM 50.0 °F - 50.0 °F 100% 29.83 in 3.7 mi SSE 8.1 mph - N/A Rain Light Rain
12:24 PM 51.8 °F - 50.0 °F 94% 29.83 in - SSE 10.4 mph - N/A Rain Rain
12:50 PM 52 °F - 50 °F 92% 29.81 in 6 mi SE 10.4 mph - - Rain Light Rain
12:50 PM 51.8 °F - 50.0 °F 94% 29.80 in 6.2 mi SE 10.4 mph - N/A Rain Light Rain
1:50 PM 53.6 °F - 50.0 °F 88% 29.77 in 6.2 mi SSE 12.7 mph - N/A Rain Light Rain
2:50 PM 53.6 °F - 50.0 °F 88% 29.74 in 6.2 mi SSE 15.0 mph - N/A Rain Light Rain
3:10 PM 51.8 °F - 50.0 °F 94% 29.71 in 6.2 mi SSE 12.7 mph - N/A Rain Light Rain
3:50 PM 51 °F - 49 °F 91% 29.72 in 2 mi South 10.4 mph - - Rain Light Rain
3:50 PM 50.0 °F - 50.0 °F 100% 29.71 in 6.2 mi South 10.4 mph - N/A Rain Light Rain
4:14 PM 51.8 °F - 50.0 °F 94% 29.71 in 6.2 mi SSE 15.0 mph - N/A   Light Drizzle
4:50 PM 51.8 °F - 50.0 °F 94% 29.68 in 6.2 mi South 10.4 mph - N/A   Overcast
5:09 PM 51.8 °F - 50.0 °F 94% 29.68 in 6.2 mi South 12.7 mph - N/A   Overcast
5:50 PM 51.8 °F - 51.8 °F 100% 29.68 in 6.2 mi South 9.2 mph - N/A   Mostly Cloudy
6:13 PM 51.8 °F - 51.8 °F 100% 29.68 in 6.2 mi SSW 9.2 mph - N/A   Partly Cloudy
6:50 PM 51 °F - 51 °F 98% 29.72 in 6 mi SSW 8.1 mph - -   Partly Cloudy
6:50 PM 51.8 °F - 50.0 °F 94% 29.71 in 6.2 mi SSW 8.1 mph - N/A   Partly Cloudy
7:50 PM 51.8 °F - 48.2 °F 88% 29.71 in - SW 10.4 mph - N/A   Clear
8:50 PM 51.8 °F - 48.2 °F 88% 29.74 in - SW 9.2 mph - N/A   Clear
9:50 PM 51 °F - 48 °F 87% 29.75 in 19 mi SW 11.5 mph - -  
9:50 PM 51.8 °F - 48.2 °F 88% 29.74 in - SW 11.5 mph - N/A   Clear
10:50 PM 51.8 °F - 48.2 °F 88% 29.74 in - SW 13.8 mph - N/A   Clear
11:50 PM 51.8 °F - 48.2 °F 88% 29.77 in - WSW 13.8 mph - N/A   Clear